Location: Unspecified
(0.0000°N, 0.0000°E)
Time: 11:25:13
(UTC+01:00)

ATLAS 2AS CENTAUR R/B - Visible Passes

Search period start: 26 January 2015 00:00
Search period end: 05 February 2015 00:00
Orbit: 915 x 1298 km, 63.7° (Epoch: 23 January)

Date Brightness Start Highest point End Pass type
(mag) Time Alt. Az. Time Alt. Az. Time Alt. Az.
29 Jan 5.1 22:27:14 10° SSW 22:27:22 11° SSW 22:27:22 11° SSW visible
30 Jan 4.5 21:43:11 10° S 21:44:27 16° S 21:44:27 16° S visible
31 Jan 4.4 21:00:03 10° SSE 21:01:37 15° SE 21:01:37 15° SE visible
31 Jan 5.2 22:48:55 10° SW 22:49:05 11° SW 22:49:05 11° SW visible
01 Feb 4.2 22:03:48 10° SSW 22:06:21 26° SSW 22:06:21 26° SSW visible
02 Feb 3.2 21:19:21 10° S 21:23:42 42° SSE 21:23:42 42° SSE visible
03 Feb 3.4 20:35:36 10° S 20:40:54 29° ESE 20:41:09 29° ESE visible
03 Feb 4.7 22:26:10 10° WSW 22:28:39 20° WSW 22:28:39 20° WSW visible
04 Feb 4.2 19:53:10 10° SE 19:56:08 14° ESE 19:58:44 12° E visible
04 Feb 3.2 21:40:36 10° SW 21:46:14 51° W 21:46:14 51° W visible
